King Salmon, AK

2:38 AM AKDT on October 01, 2016 (GMT -0800)
King Salmon

Weather History for PAKN - April, 2013

Change the Weather History Date:

Thursday, April 18, 2013

  Actual Average Record
Temperature  
Mean Temperature 32 °F 35 °F  
Max Temperature 47 °F 43 °F 57 °F (1930)
Min Temperature 16 °F 26 °F -6 °F (1982)
Degree Days  
Heating Degree Days 33 30  
Month to date heating degree days 755 606  
Since 1 July heating degree days 9959 9489  
Cooling Degree Days 0    
Month to date cooling degree days 0  
Year to date cooling degree days 0  
Moisture  
Dew Point 17 °F    
Average Humidity 0    
Maximum Humidity 0    
Minimum Humidity 0    
Precipitation  
Precipitation 0.00 in 0.03 in 0.52 in (1995)
Month to date precipitation 0.06 0.55  
Year to date precipitation 5.89 3.03  
Snow  
Snow 0.00 in 0.20 in 3.80 in (1950)
Month to date snowfall 0.8 2.9  
Since 1 July snowfall 74.5 44.8  
Snow Depth 0.00 in    
Sea Level Pressure  
Sea Level Pressure 30.14 in    
Wind  
Wind Speed 10 mph (North)    
Max Wind Speed 21 mph    
Max Gust Speed 26 mph    
Visibility 10 miles    
Events      
T = Trace of Precipitation, MM = Missing Value Source: NWS Daily Summary

Daily Weather History Graph

Daily Weather History Graph

Search for Another Location

Airport or City:

Trip Planner

Search our weather history database for the weather conditions in past years. The results will help you decide how hot, cold, wet, or windy it might be!

Date:

Astronomy

Apr. 18, 2013 Rise Set
Actual Time 7:04 AM AKDT 9:48 PM AKDT
Civil Twilight 6:19 AM AKDT 10:34 PM AKDT
Nautical Twilight 5:19 AM AKDT 11:35 PM AKDT
Astronomical Twilight 3:55 AM AKDT 1:02 AM AKDT
Moon 1:14 PM AKDT (4/18) 4:25 AM AKDT (4/18)
Length of Visible Light 16h 15m
Length of Day
14h 44m
First Quarter, 53% of the Moon is Illuminated
Apr 18
First Quarter
Apr 25
Full
May 2
Last Quarter
May 9
New
May 17
First Quarter

Hourly Weather History & Observations

Time (AKDT) Temp. Windchill Dew Point Humidity Pressure Visibility Wind Dir Wind Speed Gust Speed Precip Events Conditions
12:54 AM 21.9 °F 11.7 °F 15.1 °F 75% 30.13 in 10.0 mi North 9.2 mph - N/A   Clear
1:54 AM 23.0 °F 12.4 °F 15.1 °F 72% 30.13 in 10.0 mi North 10.4 mph - N/A   Clear
2:54 AM 21.9 °F 11.0 °F 14.0 °F 72% 30.13 in 10.0 mi NNE 10.4 mph - N/A   Clear
3:54 AM 21.0 °F 10.6 °F 12.9 °F 71% 30.12 in 10.0 mi North 9.2 mph - N/A   Clear
4:54 AM 19.9 °F 11.1 °F 15.1 °F 81% 30.12 in 10.0 mi North 6.9 mph - N/A   Clear
5:54 AM 18.0 °F 9.8 °F 15.1 °F 88% 30.12 in 10.0 mi North 5.8 mph - N/A   Clear
6:54 AM 17.1 °F 8.7 °F 14.0 °F 88% 30.12 in 10.0 mi North 5.8 mph - N/A   Clear
7:54 AM 18.0 °F 9.8 °F 12.9 °F 81% 30.12 in 10.0 mi North 5.8 mph - N/A   Clear
8:54 AM 23.0 °F 18.4 °F 15.1 °F 72% 30.13 in 10.0 mi North 3.5 mph - N/A   Clear
9:54 AM 28.9 °F 21.1 °F 17.1 °F 61% 30.14 in 10.0 mi North 8.1 mph - N/A   Clear
10:54 AM 34.0 °F 26.6 °F 19.0 °F 54% 30.14 in 10.0 mi North 9.2 mph - N/A   Clear
11:54 AM 39.0 °F 33.4 °F 17.1 °F 41% 30.14 in 10.0 mi North 8.1 mph - N/A   Clear
12:54 PM 41.0 °F 38.0 °F 14.0 °F 33% 30.14 in 10.0 mi North 4.6 mph - N/A   Clear
1:54 PM 44.1 °F 42.5 °F 10.9 °F 26% 30.13 in 10.0 mi Variable 3.5 mph - N/A   Clear
2:54 PM 46.0 °F 39.6 °F 19.9 °F 35% 30.13 in 10.0 mi NNW 15.0 mph 20.7 mph N/A   Clear
3:54 PM 46.9 °F - 19.0 °F 33% 30.13 in 10.0 mi North 15.0 mph 23.0 mph N/A   Clear
4:54 PM 46.0 °F 38.8 °F 18.0 °F 33% 30.13 in 10.0 mi NNE 18.4 mph 24.2 mph N/A   Clear
5:54 PM 44.1 °F 36.5 °F 18.0 °F 35% 30.13 in 10.0 mi North 17.3 mph 25.3 mph N/A   Clear
6:54 PM 41.0 °F 32.2 °F 19.0 °F 41% 30.13 in 10.0 mi North 18.4 mph 25.3 mph N/A   Clear
7:54 PM 39.0 °F 29.9 °F 19.0 °F 45% 30.14 in 10.0 mi North 17.3 mph - N/A   Clear
8:54 PM 37.0 °F 28.5 °F 19.9 °F 50% 30.14 in 10.0 mi North 13.8 mph - N/A   Clear
9:54 PM 33.1 °F 26.1 °F 21.0 °F 61% 30.17 in 10.0 mi North 8.1 mph - N/A   Clear
10:54 PM 30.0 °F 24.1 °F 21.0 °F 69% 30.17 in 10.0 mi NNW 5.8 mph - N/A   Clear
11:54 PM 28.9 °F 21.1 °F 21.0 °F 72% 30.18 in 10.0 mi NNW 8.1 mph - N/A   Clear